Location: Chimay
(50.0486°N, 4.3171°E)
Time: 21:54:10
(UTC+00:00)

ALOS 2 - Pass Details

Date: 08 August 2020
Orbit: 630 x 632 km, 97.9° (Epoch: 22 September)

Event Time Altitude Azimuth Distance (km) Brightness Sun altitude
Exits shadow 22:27:34 38° 94° (E) 964 3.3 -21.8°
Maximum altitude 22:28:17 42° 68° (ENE) 913 3.3 -21.8°
Drops below altitude 10° 22:32:26 10° 358° (N) 2,027 6.2 -22.1°
Sets 22:34:44 0° 352° (N) 2,940 7.4 -22.2°
